Temperature
7 8 9 9 9 9 9 9 9 11 12 13 12 11 10 11 10 9 8 8 9 9 9 9 9 8 8 8 7 7 6 6 5 5 5 4 3 3 2 2 1 0 -0 -1
8 9 10 9 10 10 9 9 9 11 13 13 11 10 10 10 10 9 8 8 9 9 9 9 8 8 7 7 6 6 5 5 4 4 4 3 2 2 1 1 0 -0 -1 -1
9 10 10 10 11 10 10 11 11 12 13 12 11 11 10 10 10 10 9 9 9 9 9 9 8 8 7 6 5 5 4 4 4 3 3 2 2 1 1 0 -0 -1 -1 -2
9 10 10 12 12 12 12 12 13 13 13 13 12 11 11 11 11 11 10 9 9 9 9 9 8 7 6 5 5 4 4 4 3 3 2 1 1 0 -0 -1 -1 -2 -2 -3
9 10 11 13 12 12 12 12 12 12 12 10 10 11 10 11 12 12 11 10 10 10 9 8 7 6 5 5 4 4 3 3 2 2 1 1 0 -0 -1 -1 -2 -2 -3 -3
9 10 11 13 13 12 13 13 12 11 10 9 10 10 9 11 12 12 11 11 10 9 9 8 7 6 5 4 4 3 3 2 2 1 0 0 -0 -1 -2 -2 -3 -3 -3 -4
9 9 10 11 12 13 12 12 11 11 10 10 10 11 9 10 11 11 11 10 10 9 8 7 6 5 4 4 3 2 2 1 1 0 -0 -1 -1 -2 -2 -3 -3 -3 -3 -4
9 9 10 12 12 12 11 10 9 9 9 9 7 8 8 9 10 10 10 9 9 8 7 6 5 4 3 3 2 2 1 1 0 -0 -1 -1 -2 -2 -3 -3 -3 -4 -4 -5
9 10 10 11 12 11 11 10 9 8 8 9 6 5 7 8 8 8 8 8 7 6 5 4 3 3 3 2 2 1 1 0 -0 -1 -1 -2 -3 -3 -3 -3 -4 -4 -6 -7
9 9 9 10 11 11 12 11 10 9 9 9 7 6 7 7 7 7 7 6 6 5 4 3 2 2 2 1 1 0 -0 -1 -1 -1 -2 -2 -3 -3 -4 -4 -5 -6 -7 -8
9 9 9 9 10 11 11 11 9 8 8 9 8 7 7 7 6 6 5 5 4 4 3 2 2 1 1 0 0 -0 -1 -1 -2 -2 -2 -3 -3 -4 -4 -5 -6 -8 -8 -9
10 9 8 8 9 10 11 10 9 8 7 8 9 8 7 7 6 5 5 4 3 3 2 2 1 1 0 -0 -1 -1 -1 -2 -2 -3 -3 -3 -3 -4 -4 -5 -6 -7 -8 -9
11 11 10 9 9 10 10 9 9 9 9 8 8 8 7 6 5 5 4 3 3 2 2 1 0 -0 -1 -1 -1 -2 -2 -2 -3 -3 -3 -4 -4 -5 -5 -6 -6 -7 -8 -8
11 10 7 7 7 9 9 8 8 8 8 8 7 7 6 5 4 4 3 2 2 1 1 0 -0 -1 -1 -2 -2 -2 -3 -3 -3 -4 -4 -5 -5 -6 -7 -8 -8 -8 -8 -9
10 10 9 8 8 8 8 8 7 7 7 6 6 6 5 5 4 3 2 1 1 0 -0 -1 -1 -2 -2 -2 -3 -3 -3 -4 -4 -4 -5 -5 -6 -7 -7 -8 -9 -9 -9 -9
9 8 8 7 7 7 7 7 7 6 6 6 5 5 4 4 3 2 1 0 -0 -1 -1 -1 -2 -2 -2 -3 -3 -4 -4 -4 -5 -5 -5 -6 -7 -7 -8 -9 -9 -9 -9 -10
8 5 5 6 6 6 7 7 7 6 6 5 5 4 3 2 2 1 -0 -1 -1 -1 -2 -2 -2 -3 -3 -3 -4 -4 -4 -5 -5 -6 -6 -7 -8 -8 -9 -9 -9 -10 -10 -10
10 10 9 8 7 6 6 7 6 6 5 5 4 3 3 2 1 0 -1 -1 -2 -2 -3 -3 -3 -4 -4 -4 -4 -5 -5 -5 -6 -6 -7 -8 -8 -9 -9 -10 -10 -10 -10 -10
8 7 6 6 6 7 6 6 6 5 5 4 3 2 1 1 0 -1 -1 -2 -2 -3 -3 -4 -4 -4 -4 -5 -5 -5 -6 -6 -6 -7 -8 -8 -9 -9 -9 -10 -10 -10 -10 -10
6 6 5 5 6 6 6 5 5 4 3 3 2 1 0 -0 -1 -2 -2 -3 -3 -4 -4 -4 -5 -5 -5 -5 -6 -6 -6 -7 -7 -8 -8 -9 -9 -10 -10 -10 -10 -11 -11 -11
4 4 4 5 5 5 5 5 4 3 2 2 2 1 -0 -1 -2 -2 -3 -3 -4 -4 -5 -5 -5 -5 -6 -6 -6 -7 -7 -7 -8 -8 -9 -9 -10 -10 -10 -10 -11 -11 -11 -12
3 3 4 5 5 4 3 3 3 2 1 1 0 -0 -1 -2 -3 -3 -4 -4 -5 -5 -5 -5 -6 -6 -6 -6 -7 -7 -8 -8 -8 -9 -9 -10 -10 -10 -11 -11 -11 -11 -11 -11
3 4 4 4 4 3 2 2 1 1 0 -0 -1 -1 -2 -3 -3 -4 -4 -5 -5 -5 -6 -6 -6 -6 -6 -7 -7 -8 -8 -9 -9 -9 -10 -10 -10 -11 -11 -11 -11 -11 -11 -11
3 4 3 3 3 2 1 0 0 -0 -1 -2 -2 -3 -3 -3 -4 -5 -5 -5 -6 -6 -6 -6 -6 -7 -7 -7 -8 -8 -9 -9 -10 -10 -10 -10 -11 -11 -11 -11 -11 -11 -11 -11
3 3 3 2 2 1 0 -0 -1 -1 -2 -2 -3 -4 -4 -4 -4 -5 -5 -6 -6 -6 -6 -7 -7 -7 -8 -8 -8 -9 -9 -10 -10 -10 -10 -11 -11 -11 -11 -12 -12 -12 -11 -11
3 2 2 2 2 1 -0 -1 -1 -2 -2 -3 -4 -5 -5 -5 -5 -6 -6 -6 -6 -6 -7 -7 -7 -8 -8 -9 -9 -9 -10 -10 -10 -10 -11 -11 -11 -11 -12 -12 -12 -12 -11 -11
2 1 1 0 -0 -1 -1 -2 -2 -3 -3 -4 -4 -5 -6 -6 -6 -6 -6 -6 -7 -7 -7 -8 -8 -8 -9 -9 -9 -10 -10 -10 -10 -11 -11 -11 -11 -12 -12 -12 -12 -12 -11 -11
Wind_Speed
15 15 10 11 17 22 19 14 9 9 7 7 8 11 14 16 17 18 18 18 18 17 14 14 13 13 13 12 10 11 10 9 7 6 5 4 3 3 4 5 6 6 7 8
9 10 12 12 15 18 19 15 12 9 5 1 5 7 10 15 19 19 19 19 18 17 16 16 16 15 13 12 11 10 9 8 7 6 5 3 3 4 5 5 6 6 7 8
5 3 4 6 13 16 14 11 11 8 4 4 5 9 14 17 19 20 20 19 19 18 18 16 16 16 15 12 11 10 9 7 6 5 4 3 3 4 5 5 6 7 8 8
4 2 1 4 5 11 11 10 9 5 3 5 6 6 4 5 13 14 15 16 15 15 14 13 13 14 13 12 11 9 8 7 6 5 3 2 3 4 5 5 5 6 7 8
2 3 5 4 2 4 6 5 7 8 6 6 8 7 4 3 6 9 11 13 13 13 15 15 16 15 14 11 10 9 8 6 5 4 3 2 4 5 4 5 6 6 7 8
2 2 2 3 3 1 5 3 1 7 10 10 10 6 4 1 7 11 13 13 14 15 17 16 14 15 14 12 9 8 7 6 5 3 2 2 4 4 4 5 6 7 7 8
2 3 6 6 4 2 5 4 2 3 9 12 8 6 9 10 12 15 16 17 17 17 15 15 14 14 13 10 8 7 7 6 4 3 2 2 3 3 5 6 7 7 8 8
5 4 7 3 2 3 3 1 3 2 4 9 13 15 14 14 16 17 17 16 16 16 14 11 11 13 12 9 8 7 6 5 3 2 2 3 4 5 6 6 7 7 7 8
8 7 2 1 1 1 3 3 3 5 10 17 16 14 15 14 15 14 15 14 13 16 14 10 9 11 12 8 8 7 6 4 3 3 3 3 4 5 6 6 5 6 6 7
4 5 2 1 2 3 4 5 7 10 13 16 18 16 16 14 14 13 13 13 13 15 13 9 8 9 9 8 7 7 6 3 2 2 3 4 4 4 4 5 6 7 8 8
4 2 2 0 2 5 8 12 14 11 11 15 20 17 15 14 13 12 12 10 10 12 12 10 9 9 8 7 7 6 4 2 1 2 3 4 4 4 6 5 7 9 6 7
7 7 7 5 6 8 11 12 14 16 12 10 14 16 14 12 10 11 11 10 11 11 11 10 9 8 7 6 7 6 3 1 1 2 3 4 5 6 9 11 15 16 16 16
3 4 5 8 8 7 10 12 12 13 14 13 11 13 13 10 8 10 10 11 10 10 10 9 9 8 6 6 6 5 2 1 2 3 4 4 5 6 7 9 13 15 18 20
8 9 7 5 7 10 14 14 14 13 11 12 11 12 12 10 10 10 10 9 9 10 9 8 8 6 5 5 5 3 1 2 3 3 4 4 5 6 6 8 9 8 12 18
5 5 10 12 13 13 13 16 16 14 12 11 10 11 11 11 10 9 8 9 10 9 8 8 7 5 4 5 4 2 1 2 3 3 4 5 5 6 6 8 8 9 9 11
10 12 15 16 15 14 15 16 16 12 11 10 11 10 10 11 10 9 9 10 10 9 7 7 6 5 4 4 3 2 1 5 6 4 4 5 5 6 6 7 8 9 10 11
12 12 12 15 14 14 12 12 13 13 12 12 11 11 12 12 11 9 8 7 8 7 7 6 6 4 4 3 2 1 2 4 7 5 5 5 6 6 7 8 8 9 10 13
6 9 14 19 18 15 13 12 13 13 12 11 12 12 11 11 10 9 8 8 9 7 6 5 5 4 3 2 2 1 2 3 4 5 5 5 6 6 7 8 9 10 10 13
10 12 13 13 14 15 14 13 12 12 12 12 12 10 9 9 9 8 8 8 8 6 3 3 6 5 3 2 3 2 3 4 5 5 5 9 9 7 7 8 9 10 10 11
11 14 16 15 14 16 15 14 13 12 10 11 11 11 9 8 8 9 8 6 4 3 4 4 5 4 2 3 4 2 4 4 5 5 5 5 6 7 8 9 10 11 11 11
15 16 17 17 15 14 14 14 14 13 10 10 11 11 10 9 8 8 8 6 3 4 4 6 3 1 1 3 4 3 4 4 5 5 6 6 7 8 8 10 11 11 11 11
14 17 17 17 17 14 10 10 12 13 11 10 10 10 11 10 9 8 6 4 3 6 4 3 1 2 4 5 3 4 4 4 5 5 5 6 7 8 9 10 10 11 11 11
14 15 16 16 16 14 12 11 11 11 11 10 10 10 10 8 6 6 5 2 3 6 4 2 3 6 7 5 4 4 4 5 5 6 6 6 6 7 8 10 9 10 10 11
15 15 15 14 15 16 14 10 10 10 11 10 9 9 9 8 6 5 4 6 6 6 3 4 6 7 7 4 4 4 5 5 6 6 6 6 6 7 8 9 9 10 10 11
14 15 15 15 13 11 12 12 12 11 11 9 9 8 6 5 5 4 4 4 6 6 3 6 8 9 5 4 4 5 5 6 7 6 5 6 7 7 8 8 9 10 10 10
12 11 9 9 10 11 10 10 9 8 9 9 7 6 6 6 6 5 4 4 5 5 4 3 4 6 4 5 5 5 5 7 7 7 7 7 7 8 8 9 10 10 10 10
12 10 10 10 8 8 8 8 9 9 8 9 8 5 5 5 5 4 4 3 3 3 3 3 4 4 5 5 5 5 5 6 6 6 7 6 7 7 8 10 9 10 10 11
Wind_Direction
255 255 236 214 201 195 201 211 225 254 245 226 182 164 159 154 152 154 159 162 163 161 156 150 144 139 137 132 129 128 125 123 127 128 121 107 80 38 12 359 349 337 329 322
276 251 224 218 209 199 204 216 228 252 284 279 106 108 135 153 159 165 169 170 167 162 157 154 150 145 138 134 132 129 127 129 129 125 116 96 56 23 5 351 340 335 325 317
302 275 173 208 202 196 197 203 207 220 225 134 132 157 164 168 171 174 174 171 169 166 162 156 151 145 141 137 133 128 128 131 130 124 112 79 37 13 352 337 328 322 314 311
316 3 284 257 200 181 186 196 191 189 191 173 159 127 110 160 173 172 168 165 161 155 147 140 136 135 131 132 131 129 131 133 130 122 104 59 19 352 328 315 313 307 303 304
332 327 303 322 43 159 178 214 194 186 165 130 119 88 40 6 161 157 151 148 144 139 135 134 135 135 131 129 129 130 134 135 130 121 98 30 349 327 312 306 306 297 297 303
330 325 287 305 324 263 142 240 220 178 169 159 139 143 200 74 115 115 117 123 125 125 128 130 134 134 132 133 133 137 138 133 126 113 84 352 321 309 300 298 292 297 302 303
232 281 277 272 300 79 138 235 323 198 177 167 165 150 124 102 99 108 112 117 122 125 129 133 134 130 130 132 136 135 129 123 111 88 24 325 318 304 302 301 303 306 304 302
176 224 261 286 76 143 199 348 38 68 118 122 108 106 107 106 107 109 112 115 120 121 120 122 127 128 128 132 131 125 120 112 94 50 357 348 330 312 308 310 312 311 307 305
194 213 266 337 112 103 140 109 87 94 116 122 116 113 110 107 108 109 113 113 116 120 117 112 117 127 130 133 129 121 112 102 74 24 354 337 320 315 317 319 316 312 309 312
233 257 252 4 53 48 75 100 104 116 121 122 119 119 114 114 112 111 113 115 119 120 121 116 113 113 124 130 124 118 112 95 54 5 333 325 316 313 317 315 312 315 321 323
230 243 117 225 123 106 95 102 103 97 106 123 122 122 122 121 120 119 118 117 121 125 125 122 119 117 120 123 119 114 109 88 18 331 315 313 318 316 320 297 310 325 319 315
212 204 182 185 149 128 121 121 122 117 104 104 121 124 123 121 122 124 124 121 120 120 123 124 123 122 121 120 120 120 116 81 313 306 307 313 317 319 328 331 329 330 330 328
173 125 110 115 113 110 116 119 119 118 122 118 113 121 123 120 120 122 123 127 130 131 130 129 127 127 128 124 119 121 131 263 293 307 312 315 314 314 318 324 325 327 328 328
115 110 106 114 118 115 114 111 104 99 102 111 116 116 115 113 117 122 128 130 127 125 126 128 127 131 134 126 120 119 111 326 325 310 309 306 304 304 306 313 317 314 320 325
50 101 125 118 114 114 115 115 111 108 107 103 108 115 118 122 122 119 118 119 118 118 123 126 128 132 131 125 123 119 56 320 316 311 307 302 301 302 303 306 311 314 315 322
89 95 113 121 125 125 124 125 124 123 120 116 113 110 110 111 110 110 115 124 126 131 134 131 132 135 129 123 118 98 7 346 345 330 317 311 307 308 311 312 315 316 319 322
127 133 136 138 138 136 133 132 133 131 126 123 121 118 113 111 108 107 108 109 115 120 124 127 129 125 120 119 112 68 351 334 341 332 310 306 306 309 315 317 316 316 315 319
144 150 154 150 146 137 127 123 125 126 125 124 123 120 121 124 127 125 117 107 99 90 90 112 122 115 101 95 94 42 340 322 316 311 308 310 314 317 317 316 315 315 316 320
120 126 126 128 132 130 127 125 122 120 121 123 123 121 120 121 122 120 115 112 115 115 113 120 122 107 87 51 71 14 335 324 319 315 313 325 329 320 319 318 317 317 318 320
119 122 121 118 120 124 124 122 121 119 119 120 118 115 113 114 116 112 104 94 95 128 135 117 103 96 68 1 22 357 334 325 320 320 321 319 319 319 319 321 322 319 319 319
124 123 120 118 115 114 120 124 125 123 118 117 121 122 119 114 113 113 111 101 72 93 101 104 98 85 315 6 20 358 341 332 327 323 323 322 321 319 319 319 318 318 317 318
123 122 120 119 116 110 104 110 116 117 114 110 110 114 114 111 106 95 86 104 112 106 90 74 39 347 22 40 19 356 346 337 328 321 317 316 317 318 317 315 315 315 316 316
119 119 118 117 116 110 99 97 103 111 113 116 118 118 116 113 113 119 112 100 96 97 84 26 15 24 36 35 5 352 341 332 324 318 312 307 306 308 311 312 312 313 313 313
117 114 112 112 112 110 104 96 94 96 97 96 99 106 112 108 85 68 97 111 107 93 57 30 28 26 26 13 350 338 328 320 311 303 302 305 305 305 307 309 310 311 310 310
116 116 117 117 114 115 116 111 103 98 96 92 83 76 74 89 110 104 83 74 86 82 49 22 21 18 14 345 336 326 318 310 308 315 318 312 307 308 308 308 308 308 307 306
117 114 109 108 118 126 128 124 120 118 116 109 95 84 84 85 92 91 83 68 61 61 43 11 357 0 347 333 324 318 315 317 321 317 306 305 304 305 305 306 305 304 303 301
103 105 107 106 107 114 121 124 126 126 125 123 115 103 98 96 93 88 81 66 46 26 5 352 346 338 330 325 321 319 315 311 308 306 303 300 300 300 301 301 302 301 300 299
Height
1393 1388 1388 1389 1389 1395 1400 1401 1402 1391 1380 1371 1369 1371 1375 1382 1389 1396 1402 1408 1413 1418 1424 1430 1436 1442 1447 1452 1456 1460 1463 1466 1468 1469 1470 1469 1468 1467 1465 1463 1461 1458 1454 1450
1384 1376 1377 1380 1381 1385 1391 1394 1395 1387 1378 1368 1370 1373 1378 1383 1388 1394 1400 1405 1411 1416 1422 1428 1434 1439 1445 1450 1455 1459 1462 1465 1466 1467 1467 1467 1466 1464 1463 1460 1457 1454 1449 1445
1380 1371 1372 1375 1372 1376 1381 1382 1384 1381 1374 1370 1373 1375 1377 1382 1386 1391 1396 1401 1407 1413 1420 1426 1432 1438 1444 1449 1454 1458 1461 1463 1465 1465 1465 1464 1463 1462 1460 1457 1453 1449 1445 1440
1381 1376 1376 1367 1359 1364 1369 1371 1372 1370 1369 1370 1372 1376 1380 1383 1385 1390 1395 1401 1407 1413 1420 1426 1433 1439 1444 1449 1454 1457 1460 1462 1463 1463 1463 1462 1461 1459 1456 1453 1449 1445 1440 1436
1386 1381 1373 1362 1360 1361 1365 1367 1366 1368 1369 1372 1374 1378 1383 1384 1388 1391 1396 1401 1407 1414 1420 1426 1433 1439 1444 1449 1453 1456 1459 1460 1461 1461 1460 1459 1458 1455 1452 1449 1445 1441 1436 1431
1387 1384 1379 1365 1359 1359 1363 1367 1363 1363 1367 1371 1373 1382 1384 1384 1387 1392 1398 1403 1409 1415 1422 1427 1434 1439 1444 1448 1452 1455 1457 1458 1458 1458 1458 1457 1455 1452 1448 1445 1441 1436 1432 1427
1387 1385 1376 1364 1359 1359 1371 1367 1362 1361 1363 1366 1369 1374 1379 1383 1388 1393 1399 1405 1411 1417 1423 1429 1434 1439 1444 1448 1451 1454 1455 1456 1456 1456 1455 1454 1451 1448 1445 1441 1436 1432 1427 1422
1384 1384 1378 1361 1360 1364 1364 1361 1360 1360 1361 1366 1370 1374 1379 1384 1389 1395 1401 1407 1413 1419 1424 1431 1436 1440 1444 1448 1450 1452 1453 1454 1454 1454 1452 1450 1448 1444 1441 1436 1431 1426 1420 1415
1374 1372 1365 1362 1361 1362 1361 1361 1362 1362 1364 1366 1371 1378 1383 1389 1394 1400 1405 1410 1416 1421 1426 1432 1437 1441 1444 1447 1449 1450 1451 1452 1452 1451 1449 1447 1444 1440 1436 1431 1425 1420 1415 1409
1369 1366 1364 1363 1363 1363 1363 1363 1364 1366 1368 1370 1374 1382 1387 1393 1399 1404 1409 1414 1419 1423 1428 1433 1438 1442 1444 1446 1448 1449 1450 1450 1449 1448 1446 1444 1440 1436 1431 1426 1421 1415 1410 1405
1366 1364 1364 1363 1363 1364 1365 1366 1368 1371 1374 1376 1380 1387 1392 1397 1403 1407 1412 1417 1422 1426 1429 1434 1438 1441 1443 1445 1446 1447 1448 1448 1447 1445 1443 1439 1436 1432 1427 1422 1418 1413 1408 1403
1361 1358 1360 1362 1363 1366 1367 1369 1372 1375 1380 1384 1387 1391 1397 1401 1406 1411 1415 1419 1423 1427 1431 1435 1438 1440 1442 1444 1445 1446 1446 1445 1444 1441 1439 1435 1431 1428 1423 1420 1415 1410 1405 1401
1354 1355 1357 1360 1364 1367 1370 1373 1377 1380 1384 1388 1393 1397 1401 1405 1410 1414 1418 1422 1425 1429 1432 1435 1438 1440 1442 1443 1444 1444 1443 1442 1440 1438 1435 1431 1426 1422 1417 1414 1411 1407 1402 1397
1353 1355 1359 1362 1365 1369 1372 1376 1381 1385 1390 1393 1397 1401 1405 1408 1412 1416 1420 1423 1427 1430 1433 1436 1438 1439 1441 1441 1442 1442 1441 1439 1437 1434 1431 1427 1423 1418 1414 1408 1404 1400 1397 1392
1354 1355 1357 1362 1367 1372 1376 1380 1384 1388 1393 1397 1401 1404 1407 1410 1414 1418 1421 1425 1428 1431 1433 1436 1437 1439 1440 1440 1440 1439 1438 1436 1434 1431 1427 1423 1419 1415 1410 1406 1400 1395 1390 1386
1355 1357 1360 1363 1368 1373 1378 1382 1386 1391 1395 1399 1403 1407 1410 1413 1416 1419 1423 1426 1428 1431 1433 1435 1437 1438 1438 1438 1438 1437 1435 1433 1430 1427 1423 1420 1415 1411 1406 1402 1397 1392 1386 1381
1355 1359 1362 1366 1370 1375 1380 1384 1388 1392 1397 1401 1404 1408 1411 1414 1417 1420 1424 1427 1430 1432 1433 1435 1436 1437 1437 1436 1436 1434 1432 1429 1427 1423 1420 1416 1412 1407 1403 1398 1393 1388 1383 1378
1356 1357 1360 1363 1369 1375 1382 1387 1391 1395 1399 1403 1406 1410 1413 1416 1418 1421 1424 1427 1429 1431 1433 1434 1435 1435 1435 1434 1433 1431 1429 1426 1423 1420 1416 1412 1408 1404 1399 1395 1389 1384 1378 1374
1357 1360 1364 1368 1373 1378 1384 1389 1394 1398 1402 1405 1408 1412 1415 1418 1420 1423 1425 1428 1429 1431 1433 1433 1434 1434 1433 1432 1430 1428 1425 1422 1419 1416 1412 1408 1404 1400 1395 1390 1385 1380 1375 1369
1358 1361 1366 1371 1377 1382 1387 1392 1396 1401 1404 1408 1411 1413 1416 1419 1422 1424 1426 1428 1430 1431 1432 1432 1432 1432 1431 1429 1427 1424 1422 1419 1416 1412 1408 1404 1400 1396 1391 1386 1381 1376 1371 1366
1359 1363 1368 1374 1380 1386 1391 1395 1399 1402 1406 1410 1413 1415 1417 1420 1422 1425 1426 1428 1429 1430 1431 1431 1430 1429 1428 1426 1424 1421 1418 1415 1412 1408 1404 1400 1396 1392 1387 1382 1377 1372 1367 1362
1361 1366 1371 1377 1382 1388 1394 1399 1402 1405 1408 1411 1414 1416 1418 1420 1423 1425 1427 1428 1429 1430 1430 1429 1428 1427 1425 1423 1421 1418 1415 1412 1408 1405 1401 1397 1392 1388 1383 1378 1373 1368 1364 1359
1365 1370 1376 1381 1386 1391 1396 1401 1404 1407 1410 1413 1415 1418 1420 1421 1424 1425 1426 1428 1428 1428 1428 1427 1426 1424 1422 1420 1417 1414 1411 1408 1405 1401 1397 1393 1389 1384 1379 1375 1370 1365 1360 1356
1370 1375 1380 1385 1390 1393 1398 1402 1406 1409 1412 1414 1417 1419 1421 1422 1423 1425 1426 1427 1427 1427 1426 1425 1423 1421 1419 1417 1414 1411 1408 1404 1401 1397 1393 1389 1385 1381 1376 1371 1366 1362 1357 1353
1375 1380 1384 1389 1392 1396 1400 1403 1407 1410 1413 1415 1417 1420 1422 1423 1424 1425 1426 1426 1426 1425 1424 1423 1421 1419 1416 1414 1411 1408 1404 1401 1397 1393 1389 1385 1381 1377 1373 1368 1364 1359 1355 1351
1379 1384 1388 1392 1395 1398 1401 1405 1408 1411 1413 1415 1417 1420 1422 1423 1424 1425 1425 1425 1424 1423 1422 1420 1418 1416 1413 1410 1407 1404 1401 1397 1393 1390 1386 1382 1378 1374 1370 1366 1362 1357 1353 1349
1383 1387 1391 1394 1398 1401 1404 1407 1409 1411 1414 1416 1418 1420 1422 1423 1424 1424 1424 1423 1423 1421 1420 1418 1415 1413 1410 1407 1404 1401 1397 1393 1390 1386 1383 1379 1375 1372 1368 1364 1360 1356 1352 1348